{"data":{"norad_id":87934,"intl_designator":"","name":"UNKNOWN","alt_names":[],"object_type":"UNKNOWN","status":"UNKNOWN","operator":null,"country":null,"launch_date":null,"launch_site_code":null,"launch_vehicle":null,"mission":null,"orbit_class":"UNKNOWN","rcs_meters":null,"size_class":null,"mass_kg":null,"dimensions":null,"purposes":[],"wikipedia_slug":null,"has_3d_model":false,"image_url":null,"decayed_at":null,"tle_current":{"epoch":"2026-05-20T08:43:26.812992Z","epoch_age_seconds":471801,"freshness":"STALE","line1":"1 87934U          26140.36350478  .00000051  00000+0  39020-4 0  9993","line2":"2 87934  82.9384 182.4855 0032016 316.8109  59.0717 13.73133924626087","mean_motion":13.73133924,"eccentricity":0.0032016,"inclination_deg":82.9384,"raan_deg":182.4855,"arg_perigee_deg":316.8109,"mean_anomaly_deg":59.0717,"bstar":3.902e-5,"rev_number":62608,"period_min":104.86959609921,"perigee_km":964.75672049446,"apogee_km":1011.925753943,"semimajor_km":7366.4782372187,"source":"CELESTRAK","updated_at":"2026-05-25T13:38:11.774933Z"}}}